Time,TemperatureF,DewpointF,PressureIn,WindDirection,WindDirectionDegrees,WindSpeedMPH,WindSpeedGustMPH,Humidity,HourlyPrecipIn,Conditions,Clouds,dailyrainin,SoftwareType,DateUTC
2013-08-12 00:02:00,66.0,64.0,30.03,SSW,193,0.0,1.0,94,0.00,,,0.00,,2013-08-12 04:02:00,
2013-08-12 00:12:00,66.0,64.0,30.03,SSW,193,0.0,0.0,94,0.00,,,0.00,,2013-08-12 04:12:00,
2013-08-12 00:22:00,66.0,64.0,30.03,SSW,193,0.0,0.0,94,0.00,,,0.00,,2013-08-12 04:22:00,
2013-08-12 00:33:00,66.0,64.0,30.03,SSW,193,0.0,0.0,94,0.00,,,0.00,,2013-08-12 04:33:00,
2013-08-12 00:43:00,66.0,64.0,30.02,SSW,193,0.0,0.0,94,0.00,,,0.00,,2013-08-12 04:43:00,
2013-08-12 00:52:00,66.0,64.0,30.02,SSW,193,0.0,0.0,94,0.00,,,0.00,,2013-08-12 04:52:00,
2013-08-12 01:02:00,66.0,65.0,30.03,SSW,197,0.0,1.0,95,0.00,,,0.00,,2013-08-12 05:02:00,
2013-08-12 01:11:00,66.0,64.0,30.02,South,183,0.0,1.0,94,0.00,,,0.00,,2013-08-12 05:11:00,
2013-08-12 01:22:00,66.0,64.0,30.02,South,183,0.0,1.0,94,0.00,,,0.00,,2013-08-12 05:22:00,
2013-08-12 01:32:00,65.0,63.0,30.02,South,183,1.0,2.0,93,0.00,,,0.00,,2013-08-12 05:32:00,
2013-08-12 01:43:00,65.0,63.0,30.02,SW,214,0.0,1.0,93,0.00,,,0.00,,2013-08-12 05:43:00,
2013-08-12 01:52:00,65.0,63.0,30.02,SW,214,0.0,1.0,93,0.00,,,0.00,,2013-08-12 05:52:00,
2013-08-12 02:02:00,65.0,64.0,30.02,SW,214,0.0,1.0,95,0.00,,,0.00,,2013-08-12 06:02:00,
2013-08-12 02:11:00,65.0,63.0,30.02,SW,214,0.0,0.0,94,0.00,,,0.00,,2013-08-12 06:11:00,
2013-08-12 02:22:00,65.0,63.0,30.02,SW,214,0.0,0.0,94,0.00,,,0.00,,2013-08-12 06:22:00,
2013-08-12 02:32:00,64.0,62.0,30.02,WSW,240,0.0,1.0,94,0.00,,,0.00,,2013-08-12 06:32:00,
2013-08-12 02:42:00,64.0,62.0,30.01,WSW,240,0.0,0.0,94,0.00,,,0.00,,2013-08-12 06:42:00,
2013-08-12 02:52:00,64.0,62.0,30.01,WSW,240,0.0,0.0,94,0.00,,,0.00,,2013-08-12 06:52:00,
2013-08-12 03:01:00,64.0,63.0,30.01,WSW,240,0.0,0.0,95,0.00,,,0.00,,2013-08-12 07:01:00,
2013-08-12 03:12:00,63.0,62.0,30.01,WSW,240,0.0,1.0,95,0.00,,,0.00,,2013-08-12 07:12:00,
2013-08-12 03:22:00,63.0,62.0,30.01,WSW,240,0.0,1.0,95,0.00,,,0.00,,2013-08-12 07:22:00,
2013-08-12 03:33:00,63.0,62.0,30.01,WSW,240,0.0,0.0,95,0.00,,,0.00,,2013-08-12 07:33:00,
2013-08-12 03:43:00,64.0,63.0,30.00,WSW,240,0.0,1.0,96,0.00,,,0.00,,2013-08-12 07:43:00,
2013-08-12 03:52:00,64.0,63.0,30.00,WSW,240,0.0,1.0,96,0.00,,,0.00,,2013-08-12 07:52:00,
2013-08-12 04:02:00,64.0,63.0,29.99,WSW,240,0.0,0.0,96,0.00,,,0.00,,2013-08-12 08:02:00,
2013-08-12 04:11:00,63.0,62.0,30.00,SSE,152,1.0,3.0,95,0.00,,,0.00,,2013-08-12 08:11:00,
2013-08-12 04:22:00,63.0,62.0,30.00,SSE,152,1.0,3.0,95,0.00,,,0.00,,2013-08-12 08:22:00,
2013-08-12 04:33:00,63.0,62.0,29.99,SSE,162,0.0,2.0,96,0.00,,,0.00,,2013-08-12 08:33:00,
2013-08-12 04:43:00,63.0,62.0,29.99,SSE,162,0.0,3.0,96,0.00,,,0.00,,2013-08-12 08:43:00,
2013-08-12 04:53:00,63.0,62.0,29.99,SSE,162,0.0,3.0,96,0.00,,,0.00,,2013-08-12 08:53:00,
2013-08-12 05:02:00,63.0,62.0,29.99,SSE,162,0.0,0.0,96,0.00,,,0.00,,2013-08-12 09:02:00,
2013-08-12 05:11:00,62.0,61.0,29.99,SSE,162,0.0,0.0,96,0.00,,,0.00,,2013-08-12 09:11:00,
2013-08-12 05:22:00,62.0,61.0,29.99,SSE,162,0.0,0.0,96,0.00,,,0.00,,2013-08-12 09:22:00,
2013-08-12 05:32:00,62.0,61.0,29.99,SSE,162,0.0,0.0,96,0.00,,,0.00,,2013-08-12 09:32:00,
2013-08-12 05:43:00,62.0,61.0,29.98,SSE,162,0.0,1.0,97,0.00,,,0.00,,2013-08-12 09:43:00,
2013-08-12 05:53:00,62.0,61.0,29.98,SSE,162,0.0,1.0,97,0.00,,,0.00,,2013-08-12 09:53:00,
2013-08-12 06:02:00,62.0,61.0,29.99,SSE,162,0.0,0.0,97,0.00,,,0.00,,2013-08-12 10:02:00,
2013-08-12 06:12:00,62.0,61.0,29.99,SSE,162,0.0,0.0,97,0.00,,,0.00,,2013-08-12 10:12:00,
2013-08-12 06:22:00,62.0,61.0,29.99,SSE,162,0.0,0.0,97,0.00,,,0.00,,2013-08-12 10:22:00,
2013-08-12 06:32:00,61.0,60.0,30.00,SSE,162,0.0,0.0,97,0.00,,,0.00,,2013-08-12 10:32:00,
2013-08-12 06:43:00,61.0,60.0,30.00,SSE,162,0.0,0.0,97,0.00,,,0.00,,2013-08-12 10:43:00,
2013-08-12 06:52:00,61.0,60.0,30.00,SSE,162,0.0,0.0,97,0.00,,,0.00,,2013-08-12 10:52:00,
2013-08-12 07:02:00,61.0,60.0,30.00,SSE,162,0.0,0.0,98,0.00,,,0.00,,2013-08-12 11:02:00,
2013-08-12 07:12:00,61.0,60.0,30.01,SSE,156,2.0,3.0,98,0.00,,,0.00,,2013-08-12 11:12:00,
2013-08-12 07:22:00,61.0,60.0,30.01,SSE,156,2.0,3.0,98,0.00,,,0.00,,2013-08-12 11:22:00,
2013-08-12 07:32:00,62.0,61.0,30.01,SSE,167,1.0,2.0,98,0.00,,,0.00,,2013-08-12 11:32:00,
2013-08-12 07:42:00,62.0,61.0,30.00,SSE,165,0.0,0.0,98,0.00,,,0.00,,2013-08-12 11:42:00,
2013-08-12 07:52:00,62.0,61.0,30.00,SSE,165,0.0,0.0,98,0.00,,,0.00,,2013-08-12 11:52:00,
2013-08-12 08:02:00,63.0,62.0,29.99,SSE,162,0.0,1.0,97,0.00,,,0.00,,2013-08-12 12:02:00,
2013-08-12 08:11:00,65.0,64.0,29.99,SSE,160,0.0,1.0,96,0.00,,,0.00,,2013-08-12 12:11:00,
2013-08-12 08:22:00,65.0,64.0,29.99,SSE,160,0.0,1.0,96,0.00,,,0.00,,2013-08-12 12:22:00,
2013-08-12 08:32:00,66.0,64.0,29.98,WSW,242,0.0,1.0,94,0.00,,,0.00,,2013-08-12 12:32:00,
2013-08-12 08:43:00,67.0,65.0,29.98,WSW,248,1.0,3.0,92,0.00,,,0.00,,2013-08-12 12:43:00,
2013-08-12 08:52:00,67.0,65.0,29.98,WSW,248,1.0,3.0,92,0.00,,,0.00,,2013-08-12 12:52:00,
2013-08-12 09:02:00,68.0,65.0,29.98,South,187,1.0,4.0,91,0.00,,,0.00,,2013-08-12 13:02:00,
2013-08-12 09:11:00,70.0,66.0,29.98,SW,231,2.0,5.0,88,0.00,,,0.00,,2013-08-12 13:11:00,
2013-08-12 09:22:00,70.0,66.0,29.98,SW,231,2.0,5.0,88,0.00,,,0.00,,2013-08-12 13:22:00,
2013-08-12 09:33:00,71.0,67.0,29.98,South,183,3.0,6.0,87,0.00,,,0.00,,2013-08-12 13:33:00,
2013-08-12 09:43:00,72.0,68.0,29.97,WSW,240,1.0,6.0,86,0.00,,,0.00,,2013-08-12 13:43:00,
2013-08-12 09:53:00,72.0,68.0,29.97,WSW,240,1.0,6.0,86,0.00,,,0.00,,2013-08-12 13:53:00,
2013-08-12 10:02:00,73.0,67.0,29.97,SW,225,2.0,5.0,81,0.00,,,0.00,,2013-08-12 14:02:00,
2013-08-12 10:22:00,74.0,67.0,29.97,SW,235,5.0,8.0,79,0.00,,,0.00,,2013-08-12 14:22:00,
2013-08-12 10:32:00,75.0,68.0,29.96,SSW,199,3.0,7.0,78,0.00,,,0.00,,2013-08-12 14:32:00,
2013-08-12 10:42:00,75.0,68.0,29.96,SSW,199,3.0,7.0,78,0.00,,,0.00,,2013-08-12 14:42:00,
2013-08-12 10:52:00,76.0,68.0,29.96,SW,231,3.0,7.0,77,0.00,,,0.00,,2013-08-12 14:52:00,
2013-08-12 11:22:00,77.0,68.0,29.96,SSW,212,5.0,10.0,74,0.00,,,0.00,,2013-08-12 15:22:00,
2013-08-12 11:33:00,78.0,69.0,29.96,SW,221,3.0,10.0,74,0.00,,,0.00,,2013-08-12 15:33:00,
2013-08-12 11:52:00,78.0,68.0,29.96,WSW,246,7.0,10.0,72,0.00,,,0.00,,2013-08-12 15:52:00,
2013-08-12 12:22:00,79.0,67.0,29.95,SW,222,3.0,9.0,67,0.00,,,0.00,,2013-08-12 16:22:00,
2013-08-12 12:33:00,79.0,68.0,29.95,SW,232,4.0,8.0,70,0.00,,,0.00,,2013-08-12 16:33:00,
2013-08-12 12:53:00,80.0,67.0,29.95,West,278,5.0,7.0,65,0.00,,,0.00,,2013-08-12 16:53:00,
2013-08-12 13:11:00,80.0,67.0,29.95,WSW,243,5.0,8.0,65,0.00,,,0.00,,2013-08-12 17:11:00,
2013-08-12 13:22:00,80.0,68.0,29.94,West,273,1.0,8.0,67,0.00,,,0.00,,2013-08-12 17:22:00,
2013-08-12 13:43:00,81.0,67.0,29.93,WSW,238,4.0,12.0,63,0.00,,,0.00,,2013-08-12 17:43:00,
2013-08-12 14:24:00,81.0,68.0,29.92,SW,222,6.0,10.0,65,0.00,,,0.00,,2013-08-12 18:24:00,
2013-08-12 14:32:00,81.0,69.0,29.92,SSW,211,3.0,6.0,66,0.00,,,0.00,,2013-08-12 18:32:00,
2013-08-12 14:43:00,81.0,69.0,29.92,SSW,211,3.0,6.0,66,0.00,,,0.00,,2013-08-12 18:43:00,
2013-08-12 15:11:00,82.0,68.0,29.91,WSW,238,2.0,7.0,63,0.00,,,0.00,,2013-08-12 19:11:00,
2013-08-12 15:22:00,82.0,69.0,29.90,SW,221,3.0,7.0,66,0.00,,,0.00,,2013-08-12 19:22:00,
2013-08-12 15:43:00,82.0,67.0,29.88,South,187,7.0,11.0,61,0.00,,,0.00,,2013-08-12 19:43:00,
2013-08-12 15:52:00,82.0,67.0,29.88,South,187,7.0,11.0,61,0.00,,,0.00,,2013-08-12 19:52:00,
2013-08-12 16:11:00,82.0,69.0,29.88,WNW,285,3.0,5.0,64,0.00,,,0.00,,2013-08-12 20:11:00,
2013-08-12 16:22:00,83.0,70.0,29.87,SSW,202,4.0,9.0,66,0.00,,,0.00,,2013-08-12 20:22:00,
2013-08-12 16:32:00,83.0,70.0,29.87,SSW,202,4.0,9.0,66,0.00,,,0.00,,2013-08-12 20:32:00,
2013-08-12 16:42:00,83.0,69.0,29.86,WSW,240,5.0,8.0,62,0.00,,,0.00,,2013-08-12 20:42:00,
2013-08-12 16:52:00,83.0,69.0,29.86,WSW,240,5.0,8.0,62,0.00,,,0.00,,2013-08-12 20:52:00,
2013-08-12 17:01:00,83.0,70.0,29.85,SW,221,3.0,11.0,65,0.00,,,0.00,,2013-08-12 21:01:00,
2013-08-12 17:12:00,83.0,70.0,29.85,SW,221,3.0,11.0,65,0.00,,,0.00,,2013-08-12 21:12:00,
2013-08-12 17:22:00,84.0,69.0,29.85,SW,222,5.0,9.0,60,0.00,,,0.00,,2013-08-12 21:22:00,
2013-08-12 17:32:00,84.0,69.0,29.85,SSW,210,5.0,10.0,61,0.00,,,0.00,,2013-08-12 21:32:00,
2013-08-12 17:43:00,84.0,70.0,29.85,WSW,249,6.0,8.0,62,0.00,,,0.00,,2013-08-12 21:43:00,
2013-08-12 17:52:00,84.0,70.0,29.85,WSW,249,6.0,8.0,62,0.00,,,0.00,,2013-08-12 21:52:00,
2013-08-12 18:22:00,83.0,70.0,29.83,WSW,243,1.0,6.0,65,0.00,,,0.00,,2013-08-12 22:22:00,
2013-08-12 18:32:00,82.0,69.0,29.83,WSW,254,1.0,4.0,66,0.00,,,0.00,,2013-08-12 22:32:00,
2013-08-12 18:53:00,82.0,70.0,29.82,SW,236,1.0,3.0,68,0.00,,,0.00,,2013-08-12 22:53:00,
2013-08-12 19:02:00,81.0,71.0,29.82,WSW,240,2.0,4.0,71,0.00,,,0.00,,2013-08-12 23:02:00,
2013-08-12 19:11:00,80.0,71.0,29.81,SW,218,3.0,5.0,73,0.00,,,0.00,,2013-08-12 23:11:00,
2013-08-12 19:22:00,80.0,71.0,29.81,SW,218,3.0,5.0,73,0.00,,,0.00,,2013-08-12 23:22:00,
2013-08-12 19:43:00,80.0,71.0,29.81,SW,235,3.0,4.0,74,0.00,,,0.00,,2013-08-12 23:43:00,
2013-08-12 19:54:00,79.0,71.0,29.80,WSW,253,1.0,2.0,76,0.00,,,0.00,,2013-08-12 23:54:00,
2013-08-12 20:12:00,79.0,71.0,29.80,WSW,238,1.0,3.0,77,0.00,,,0.00,,2013-08-13 00:12:00,
2013-08-12 20:24:00,78.0,71.0,29.80,WSW,241,0.0,3.0,79,0.00,,,0.00,,2013-08-13 00:24:00,
2013-08-12 20:45:00,78.0,71.0,29.80,SW,232,0.0,0.0,80,0.00,,,0.00,,2013-08-13 00:45:00,
2013-08-12 20:54:00,77.0,71.0,29.80,SW,226,0.0,1.0,81,0.00,,,0.00,,2013-08-13 00:54:00,
2013-08-12 21:13:00,77.0,71.0,29.80,SW,229,0.0,2.0,82,0.00,,,0.00,,2013-08-13 01:13:00,
2013-08-12 21:24:00,76.0,70.0,29.80,SW,229,0.0,2.0,82,0.00,,,0.00,,2013-08-13 01:24:00,
2013-08-12 21:42:00,76.0,71.0,29.80,SW,225,0.0,1.0,84,0.00,,,0.00,,2013-08-13 01:42:00,
2013-08-12 21:55:00,75.0,71.0,29.80,WSW,240,0.0,1.0,86,0.00,,,0.00,,2013-08-13 01:55:00,
2013-08-12 22:11:00,74.0,70.0,29.80,SSE,160,1.0,4.0,87,0.00,,,0.00,,2013-08-13 02:11:00,
2013-08-12 22:22:00,74.0,70.0,29.81,SW,231,2.0,4.0,87,0.00,,,0.00,,2013-08-13 02:22:00,
2013-08-12 22:43:00,74.0,70.0,29.81,SW,236,3.0,4.0,87,0.00,,,0.00,,2013-08-13 02:43:00,
2013-08-12 22:52:00,74.0,70.0,29.81,SW,235,2.0,5.0,87,0.00,,,0.00,,2013-08-13 02:52:00,
2013-08-12 23:11:00,74.0,70.0,29.81,SW,235,2.0,3.0,87,0.00,,,0.00,,2013-08-13 03:11:00,
2013-08-12 23:22:00,73.0,70.0,29.81,WSW,248,2.0,3.0,89,0.00,,,0.00,,2013-08-13 03:22:00,
2013-08-12 23:43:00,73.0,70.0,29.81,SW,222,2.0,4.0,89,0.00,,,0.00,,2013-08-13 03:43:00,
2013-08-12 23:54:00,73.0,70.0,29.80,SW,235,1.0,3.0,90,0.00,,,0.00,,2013-08-13 03:54:00,